Location: Kott?ru
(16.6209°N, 80.6208°E)
Time: 14:44:04
(UTC+00:00)

ATLAS 5 CENTAUR R/B - Pass Details

Date: 18 September 2020
Orbit: 237 x 12844 km, 20.1° (Epoch: 30 October)

Event Time Altitude Azimuth Distance (km) Brightness Sun altitude
Rises 14:03:36 0° 283° (WNW) 1,848 5.1 -21.5°
Reaches altitude 10° 14:04:57 10° 291° (WNW) 1,207 3.7 -21.9°
Enters shadow 14:06:49 43° 342° (NNW) 616 1.2 -22.3°
